THOR ABLESTAR DEB, 653

Orbit data source: Space-Track

THOR ABLESTAR DEB, 653 is space debris in LEO originally from a launch on Thu, 29 Jun 1961 UTC launched from the Air Force Eastern Test Range (AFETR). Debris objects in space refer to the collection of defunct objects orbiting the Earth. Examples of debris include non-operational satellites, rocket bodies, and fragments generated from explosions, collisions, or faulty payload assembly.

Loading next visibility...
THOR ABLESTAR DEB details
Identifier
653, 1961-015HE
Orbit
LEO
Last TLE update18 hours ago
Origin
Flag of USUSAF SSD (US)
ManufacturerUnknown
MissionSpacecraft
Bus & MotorUnknown
MassUnknown
Launch date (UTC)
1961-06-29 (64 years ago)
Launch vehicleUnknown
Launch site
Air Force Eastern Test Range (AFETR)
Object type
Payload
Rocket body
Debris
Shape & HBRUnknown
Radar Cross SectionSmall (<0.1 m²)

Expand to show TLE details & history

TLE from 18 hours ago
0 THOR ABLESTAR DEB
1 00653U 61015HE  25039.88845336  .00001157  00000-0  12863-2 0  9997
2 00653  67.4486 221.2315 0159783  10.4535 107.4235 13.69419188150310
Epoch: 2025-02-08T21:19Z
Definitive object data (Epoch: 2025-02-08T21:19:22.37Z)
Latitude53.5221°
Longitude-91.81164°
Altitude1,046.645 km
Speed7.316 km/s
True Right ascension00h 29m 02s
True Declination53° 21' 50"
Sunlit
Object was in daylight at TLE epoch
Visualization TLE readout
Latitude-28.66098°
Longitude-46.50807°
Altitude1,121.248 km
Speed7.237 km/s
Apparent Right ascension04h 24m 27s
Apparent Declination-34° 41' 30"
Sunlit
Object is in daylight
Visualization observer readout
Local Sidereal Time17:37:53
Azimuth76.075° E
Elevation-74.526°
Doppler factor1
Orbital elements
Apogee altitude1,117.884 km
Perigee altitude882.104 km
Semi-major axis7,378.131 km
Eccentricity0.0159783
Inclination67.4486°
RAAN221.2315°
Arg. of periapsis10.4535°
True anomaly109.15981°
Mean anomaly107.4235°
Eccentric anomaly108.29273°
Mean motion3.42471 °/min
BSTAR0.0012863
Orbital period105.12 mins
Loading maneuver chart data...

THOR ABLESTAR DEB Visibility forecast

Observer location: undefined°, undefined

Span
Click to sort rows by Start time (UTC) header in descending order
Start Az.
Max El. time (UTC)
Max El. Az.
Max El.
End time (UTC)
End Az.
11 mins2025-02-09 21:49:29.726Z348.886° N2025-02-09 21:54:29.726Z46.031° ENE31.865°2025-02-09 22:00:29.726Z117.645° SE
10 mins2025-02-09 23:38:29.726Z310.213° NW2025-02-09 23:42:29.726Z260.002° W33.345°2025-02-09 23:48:29.726Z186.075° SSW
10 mins2025-02-10 13:11:29.726Z197.818° SSW2025-02-10 13:16:29.726Z83.004° E43.547°2025-02-10 13:21:29.726Z32.104° NE
6 mins2025-02-10 15:02:29.726Z286.658° WNW2025-02-10 15:04:29.726Z311.32° NW18.966°2025-02-10 15:08:29.726Z356.857° N
|